Regional Weather Roundup
Issued by NWS State College, PA

Home | Current Version | Previous Version | Graphics & Text | Print | Product List | Glossary Off
Versions: 1 2 3 4 5 6 7 8 9 10 11 12 13 14 15 16 17 18 19 20 21 22 23 24 25 26 27 28 29 30 31 32 33 34 35 36 37 38 39 40 41 42 43 44 45 46 47 48 49 50

000
ASUS41 KCTP 181310
RWRCTP

REGIONAL WEATHER ROUNDUP
NATIONAL WEATHER SERVICE STATE COLLEGE PA
800 AM EST THU DEC 18 2014

Note: "fair" indicates few or no clouds below 12,000 feet with no
significant weather and/or obstructions to visibility.

* = STATION THAT DOES NOT REPORT PRECIPITATION /E.G. RAIN...SNOW...ETC/
    THUNDER OR FOG.

PAZ002>004-007>009-013>016-020>023-029>032-181400-
WESTERN PENNSYLVANIA

CITY           SKY/WX    TMP DP  RH WIND       PRES   REMARKS
ERIE           CLOUDY    32  24  72 W9        30.15S
MEADVILLE      CLOUDY    28  23  81 W9        30.11F
FRANKLIN*      CLOUDY    27  19  74 W6        30.13S
NEW CASTLE       N/A     27  21  77 SW3       30.18S
BEAVER COUNTY  CLOUDY    28  21  74 W7        30.16
BUTLER*        CLOUDY    27  19  74 W9G16     30.17S
PITTSBURGH INT CLOUDY    28  21  75 W7        30.17F
PITTSBURGH     CLOUDY    27  17  66 W8        30.16S
INDIANA*       CLOUDY    28  23  80 W8G15     30.17S
LATROBE        CLOUDY   N/A N/A N/A W16       30.17S
WASHINGTON CO* CLOUDY    27  18  69 W8        30.20S
$$

PAZ004>006-010>012-017>019-024>028-033>037-041-042-045-046-049>053-181400-
CENTRAL PENNSYLVANIA

CITY           SKY/WX    TMP DP  RH WIND       PRES   REMARKS
BRADFORD       CLOUDY    25  21  85 W12       30.04R WCI  14
DUBOIS         CLOUDY    26  22  84 W9G20     30.08R
CLEARFIELD     CLOUDY    27  21  78 W12       30.09R
JOHNSTOWN      CLOUDY    23  17  78 W13       30.06S WCI  11
ALTOONA        CLOUDY    27  20  75 NW15G25   30.10R
STATE COLLEGE  CLOUDY    28  21  74 W8G16     30.09R
WILLIAMSPORT   CLOUDY    34  21  59 NW10      30.07R
SELINSGROVE    CLOUDY    34  22  61 NW7       30.10R
FT INDIANTOWN  CLOUDY    33  20  58 VRB5G18   30.08R
CAPITAL CITY   CLOUDY    34  20  56 W12G22    30.11R
HARRISBURG     CLOUDY    34  20  56 NW13      30.10R
YORK           CLOUDY    33  20  58 W7        30.11R
$$

PAZ038>040-043-044-047-048-054-055-060>062-067>071-181400-
EASTERN PENNSYLVANIA

CITY           SKY/WX    TMP DP  RH WIND       PRES   REMARKS
SCRANTON       CLOUDY    33  22  63 NW16G28   30.00R
MOUNT POCONO   CLOUDY    28  19  69 NW18G29   29.90F
ALLENTOWN      CLOUDY    36  21  54 NW16G23   30.02R
QUAKERTOWN*    PTSUNNY   34  23  64 NW8       30.03R
READING        CLOUDY    35  21  56 W18       30.05R
LANCASTER      CLOUDY    33  20  58 NW15G24   30.08R
COATESVILLE    MOSUNNY   34  23  64 NW14G20   30.06R
POTTSTOWN      MOCLDY    33  21  61 NW7G17    30.06R
BLUE BELL      MOCLDY    36  23  60 W3        30.03R
DOYLESTOWN     CLOUDY    33  23  66 W9        30.01S
WILLOW GROVE   NOT AVBL
NORTH PHILA    CLOUDY    36  19  50 W9        30.06R
PHILADELPHIA   PTCLDY    34  19  54 W10       30.07R
$$


USA.gov is the U.S. government's official web portal to all federal, state and local government web resources and services.